Location: Gwatt
(46.7204°N, 7.6223°E)
Time: 01:26:56
(UTC+00:00)

Transit 2A - Pass Details

Date: 28 January 2021
Orbit: 601 x 958 km, 66.7° (Epoch: 07 March)

Event Time Altitude Azimuth Distance (km) Brightness Sun altitude
Rises 12:19:37 0° 311° (NW) 2,956 8.8 24.7°
Reaches altitude 10° 12:22:43 10° 290° (WNW) 1,997 8.2 24.6°
Maximum altitude 12:25:21 16° 253° (WSW) 1,627 8.2 24.5°
Drops below altitude 10° 12:27:56 10° 216° (SW) 1,944 9.4 24.4°
Sets 12:30:55 0° 194° (SSW) 2,835 10.4 24.3°
